Flag for Germany Weather past 2 weeks in Mainz, Rhineland-Palatinate, Germany

Now
48 °F

Mostly cloudy.


Feels Like: 42 °F
Forecast: 45 / 55 °F
Wind: 15 mph from West

Location: Wiesbaden Airport

Current Time: Oct 22, 2014 at 2:18:58 PM

Latest Report: Oct 22, 2014 at 1:55 PM


Visibility: N/A

Pressure: 30.03 "Hg

Humidity: 76%

Dew point: 41 °F

Location of MainzLocation

Historic Weather in Mainz — Graph

°F

Mainz temperature yesterday

Maximum temperature yesterday: 57 °F (at 1:03 PM)
Minimum temperature yesterday: 46 °F (at 6:58 AM)
Average temperature yesterday: 51 °F

Past Weeks' High & Low Weather Summary

 TemperatureHumidityPressure
High72 °F (Oct 19, 3:58 PM)100% (Oct 8, 5:58 AM)30.21 "Hg (Oct 8, 5:58 AM)
Low44 °F (Oct 22, 5:58 AM)59% (Oct 15, 3:58 PM)29.58 "Hg (Oct 21, 5:58 PM)
Average57 °F91%29.90 "Hg
* Reported Oct 7 12:58 PM — Oct 22 12:55 PM, Mainz, Weather by CustomWeather, © 2014

Note: Actual official high and low records may vary slightly from our data, if they occured in-between our weather recording intervals... More about our weather records

Advertising

Mainz weather history for previous 24 hours

 ConditionsComfort  
Time TempWeatherWind HumidityBarometerVisibility
12:55 PM
Oct 22
46 °FLight rain. Overcast.15 mph87%30.03 "HgN/A
11:55 AM45 °FOvercast.13 mph87%30.04 "HgN/A
10:55 AM45 °FOvercast.14 mph87%30.03 "HgN/A
9:55 AM46 °FOvercast.15 mph82%30.08 "HgN/A
8:58 AM45 °FOvercast.10 mph81%29.97 "HgN/A
7:56 AM45 °FMostly cloudy.10 mph81%29.97 "HgN/A
6:55 AM45 °FPassing clouds.9 mph81%29.94 "HgN/A
6:00 AM45 °FPassing clouds.14 mph81%29.92 "HgN/A
5:58 AM44 °FPartly cloudy.16 mph85%29.93 "HgN/A
5:04 AM45 °FLight rain. Mostly cloudy.14 mph87%29.92 "HgN/A
4:58 AM45 °FLight rain. Overcast.9 mph87%29.93 "HgN/A
3:58 AM46 °FLight rain. Overcast.10 mph80%29.92 "HgN/A
2:58 AM47 °FMostly cloudy.14 mph77%29.91 "HgN/A
1:58 AM46 °FClear.12 mph76%29.90 "HgN/A
12:58 AM46 °FPassing clouds.18 mph76%29.87 "HgN/A
11:58 PM
Oct 21
46 °FOvercast.16 mph76%29.85 "HgN/A
11:04 PM46 °FPassing clouds.20 mph82%29.80 "HgN/A
10:58 PM46 °FMostly cloudy.17 mph82%29.81 "HgN/A
9:58 PM48 °FPassing clouds.17 mph77%29.77 "HgN/A
8:58 PM49 °FPassing clouds.13 mph73%29.74 "HgN/A
8:00 PM50 °FLight rain. Partly cloudy.17 mph82%29.68 "HgN/A
6:58 PM52 °FDrizzle. Broken clouds.17 mph88%29.64 "HgN/A
5:58 PM57 °FRain. Mostly cloudy.17 mph88%29.58 "HgN/A
5:04 PM57 °FLight rain. Overcast.14 mph88%29.61 "HgN/A
4:58 PM56 °FOvercast.13 mph88%29.63 "HgN/A
3:58 PM57 °FLight rain. Mostly cloudy.17 mph80%29.68 "HgN/A
2:58 PM57 °FOvercast.16 mph77%29.72 "HgN/A
Weather by CustomWeather, © 2014

See weather overviewHow to use our weather pages